COSMOS 252 DEB

基本信息
目录编号:
19309
目录名称:
COSMOS 252 DEB
国际标识:
1968-097ES
轨道中心:
EARTH
物体状态:
在轨
发射日期:
1968-11-01 UTC
轨道信息
数据来源: 国际轨道数据
星历时间: 2026-07-08T20:12:06+0800
半长轴: 7622.406km
偏心率: 0.0885568
轨道倾角: 62.382°
近地点辐角: 273.286°
升交点赤经: 263.923°
平近点角: 76.733°
近地点: 569.253km
远地点: 1919.285km
周期: 110.382分钟
每日圈数: 13.04562
详细信息
发射场:
TTMTR
轨道高度:
LEO
数据来源:
AOE Integration Group
参考系:
TEME
时间系统:
UTC
历元类型:
SGP4
2D轨道图
3D轨道图
轨道高度分析图
轨道倾角分析图
轨道综合分析图
查看轨道综合分析图